Location: Street
(51.1247°N, 2.7429°W)
Time: 09:23:50
(UTC+00:00)

Tiros 1 - Pass Details

Date: 29 November 2020
Orbit: 630 x 663 km, 48.4° (Epoch: 21 January)

Event Time Altitude Azimuth Distance (km) Brightness Sun altitude
Rises 15:09:24 0° 213° (SSW) 2,985 12.8 6.2°
Reaches altitude 10° 15:12:06 10° 200° (SSW) 2,075 11.2 5.9°
Maximum altitude 15:15:55 24° 147° (SSE) 1,363 9.0 5.5°
Drops below altitude 10° 15:19:44 10° 94° (E) 2,075 9.4 5.0°
Sets 15:22:26 0° 81° (E) 2,985 10.1 4.7°
